Location: Boiro
(42.6475°N, 8.8834°W)
Time: 00:56:46
(UTC+01:00)

S-56A Canister/Altair - Pass Details

Date: 01 December 2021
Orbit: 634 x 2499 km, 38.9° (Epoch: 26 January)

Event Time Altitude Azimuth Distance (km) Brightness Sun altitude
Exits shadow 06:02:56 38° 149° (SSE) 1,038 8.3 -29.3°
Drops below altitude 10° 06:06:00 10° 119° (ESE) 2,033 10.5 -28.8°
Sets 06:08:13 0° 113° (ESE) 2,914 11.6 -28.4°
